Insulation blanket

Debris
NORAD ID: 701 Int'l Des: 1963-047 Owner: LERC Country: US
LEO

Über Insulation blanket

Beschreibung wird geladen...

Live-Position

3D-Globus wird geladen...

Nächste Überflüge

Höhenverlauf

Altitude vs Time

uPlot chart will show altitude changes over time

Zweizeiliger Elementsatz

1 00701U 63047G 25340.57810346 .00001060 00000-0 33062-3 0 9990
2 00701 30.0100 51.3670 0506339 84.3631 281.4451 13.82800779 83536
Epoch: 6. Dez. 2025 • Age: 19 hours

Aktueller Status

Höhe 1215.3 km
Geschwindigkeit 7.12 km/s
Subsatellitenpunkt -20.85°S, 159.18°E
Typ debris

Große Konstellationen

Loading constellations...